Regional Weather Roundup
Issued by NWS Upton, NY

Home | Current Version | Previous Version | Text Only | Print | Product List | Glossary On
Versions: 1 2 3 4 5 6 7 8 9 10 11 12 13 14 15 16 17 18 19 20 21 22 23 24 25 26 27 28 29 30 31 32 33 34 35 36 37 38 39 40 41 42 43 44 45 46 47 48 49 50
993
ASUS41 KOKX 242004
RWROKX

REGIONAL WEATHER ROUNDUP
NATIONAL WEATHER SERVICE NEW YORK NY
400 PM EDT SUN JUL 24 2016

NOTE: "FAIR" INDICATES FEW OR NO CLOUDS BELOW 12,000 FEET WITH NO
SIGNIFICANT WEATHER AND/OR OBSTRUCTIONS TO VISIBILITY.

NYZ071-072-176-178-NJZ106-104-242100-
NEW YORK CITY METRO AREA

CITY           SKY/WX    TMP DP  RH WIND       PRES   REMARKS
Central Park   SUNNY     89  64  43 VRB5      29.95F HX  90
LaGuardia APRT PTSUNNY   88  63  43 S17       29.93S
Kennedy INTL   PTSUNNY   84  64  50 S15       29.96F
Newark/Liberty PTSUNNY   95  53  24 NW10G18   29.92F HX  92
BRNX BOT. GARD   N/A     86  63  45 E8        29.94F
Wall St Helipt PTCLDY    90  64  43 S6        29.94F HX  91
Teterboro      SUNNY     94  55  26 VRB6      29.90F HX  92
$$

NYZ177-179-078>081-242100-
LONG ISLAND NEW YORK

CITY           SKY/WX    TMP DP  RH WIND       PRES   REMARKS
FARMINGDALE    MOSUNNY   84  63  49 S12       29.96S
ISLIP          PTSUNNY   83  63  50 S15       29.95F
SHIRLEY        MOSUNNY   83  63  50 S13       29.96F
RIVERHEAD      NOT AVBL
WESTHAMPTON    MOSUNNY   81  62  52 S12       29.97F
SOUTHAMPTON      N/A     79  68  69 S10       29.92S
BRIDGEHAMPTON    N/A     84  64  51 SW5       29.94F
EAST HAMPTON   FAIR      81  62  52 SW9G16    29.95F
MONTAUK POINT    N/A     79  66  64 S7        29.96F
$$

NYZ052-065-067-242100-
HUDSON VALLEY

CITY           SKY/WX    TMP DP  RH WIND       PRES   REMARKS
WHITE PLAINS   MOSUNNY   91  55  29 CALM      29.93F
NEWBURGH       MOSUNNY   93  55  27 VRB6      29.95F HX  91
MONTGOMERY     MOSUNNY   93  56  28 VRB6      29.93F HX  91
POUGHKEEPSIE   MOSUNNY   93  56  28 VRB3      29.92F HX  91
ALBANY         PTSUNNY   86  58  38 NE6       29.95F
$$

NJZ001-105-106-008-010-013-015-019>022-104-242100-
NEW JERSEY

CITY           SKY/WX    TMP DP  RH WIND       PRES   REMARKS
NEWARK/LIBERTY PTSUNNY   95  53  24 NW10G18   29.92F HX  92
TETERBORO      SUNNY     94  55  26 VRB6      29.90F HX  92
CALDWELL       SUNNY     92  57  30 W5        29.93F HX  90
MORRISTOWN     CLOUDY    91  61  35 NW8       29.94F HX  91
SOMERVILLE     MOSUNNY   94  61  33 NW5       29.92F HX  94
SUSSEX         MOSUNNY   92  57  30 VRB5      29.95F HX  90
ANDOVER          N/A     91  62  37 VRB3      29.96F HX  91
TRENTON        SUNNY     93  61  34 VRB3      29.94F HX  93
MILLVILLE      SUNNY     89  64  43 VRB7      29.98S HX  90
ATLANTIC CITY  SUNNY     87  62  43 S14G20    29.98S
WRIGHTSTOWN    SUNNY     94  61  32 VRB7      29.92F HX  94
TOMS RIVER     MOSUNNY   88  66  48 S15       29.96S HX  90
BELMAR         SUNNY     85  67  54 SE9G20    29.97F
$$

PAZ047>061-062-071-242100-
EASTERN PENNSYLVANIA

CITY           SKY/WX    TMP DP  RH WIND       PRES   REMARKS
PHILADELPHIA   PTSUNNY   94  59  31 SW12G17   29.96S HX  93
ALLENTOWN      MOSUNNY   94  59  31 VRB3      29.95F HX  93
SCRANTON       MOSUNNY   92  60  34 W9        29.97F HX  91
$$

CTZ002-004>006-009-010-012-RIZ004-006-007-MAZ004-011-015-242100-
SOUTHERN NEW ENGLAND
 IN CT

CITY           SKY/WX    TMP DP  RH WIND       PRES   REMARKS
BRADLEY INTL   PTSUNNY   92  53  26 NW8       29.91F
HARTFORD       MOSUNNY   92  56  29 N10       29.91F HX  90
DANBURY        MOSUNNY   93  52  24 MISG      29.95F HX  90
WTRBRY/OXFORD  PTSUNNY   84  57  39 NE5       29.98F
BRIDGEPORT     MOSUNNY   87  60  40 S12       29.93F
MERIDEN        PTSUNNY   93  55  27 VRB5      29.92F HX  91
NEW HAVEN      PTSUNNY   83  64  52 SW9       29.93F
CHESTER        FAIR      88  64  45 SE7       29.94F
GROTON         MOSUNNY   81  63  54 SW10      29.93F
WILLIMANTIC    NOT AVBL

 IN RI

CITY           SKY/WX    TMP DP  RH WIND       PRES   REMARKS
PROVIDENCE     MOSUNNY   84  64  50 SE13      29.93F
BLOCK ISLAND   SUNNY     78  64  61 SW17      29.96S
WESTERLY       SUNNY     85  61  44 SW10G17   29.95S

 IN MA

CITY           SKY/WX    TMP DP  RH WIND       PRES   REMARKS
BOSTON         MOSUNNY   84  60  44 E12       29.91S
WORCESTER      SUNNY     85  55  35 W8        29.96F
WESTFIELD      MOSUNNY   92  54  27 W5        29.92F HX  90
PROVINCETOWN   CLOUDY    82  61  48 S7        29.94S
NANTUCKET      MOSUNNY   75  65  70 SW13      29.95S
$$

ANZ330-335-338-340-345-350-353-355-242100-
COASTAL MARINE OBSERVATIONS


STATION/POSITION TIME  SKY/WX   TEMP    WIND        PRES    VSBY  WAVE
                                AIR SEA DIR/SP/G                  HT/PER
                 (UTC)          (F)     (DEG/KT/KT) (MB)    (MI)  (FT/S)
NY HARB ENTRANCE 1850            77 74  180/ 14/ 16 1014.5          2/ 6
20S FIRE ISLAND  1850            76 75  190/ 10/ 12 1014.9          2/ 5
GREAT SOUTH BAY  NOT AVBL
23 SSW MONTAUK P 1850            75 74  210/  8/  8 1015.4          2/ 6
15 E BARNEGAT LI 1922               77                N/A           2/ 6
HUDSON CANYON    1850            77 78              1015.9          3/ 6
KINGS POINT      1900            83 73              1013.8
EXECUTION ROCKS  1900            85     130/  4/  6   N/A
CENTRAL LI SOUND 1900            78 75  210/  8/ 10   N/A           1
EASTERN LI SOUND 1900            73 69  190/  4/  6   N/A
ROBBINS REEF     1900            76     170/ 20/ 22 1013.4
$$


>>>>>>>>>>>>>>>>>>>>>>>>>>>> KEY <<<<<<<<<<<<<<<<<<<<<<<<<<<
>                                                          <
>     SKY/WX - SKY CONDITION/PRESENT WEATHER               <
>     TMP    - TEMPERATURE IN FAHRENHEIT                   <
>     DP     - DEWPOINT IN FAHRENHEIT                      <
>     RH     - RELATIVE HUMIDITY IN PERCENT                <
>     WIND   - DIRECTION AND SPEED IN MPH                  <
>     PRES   - MEAN SEA LEVEL PRESSURE IN INCHES OF HG     <
>     WCI    - WIND CHILL INDEX                            <
>     VSB    - VISIBILITY IN MILES                         <
>     HX     - HEAT INDEX                                  <
>     TC     - TEMPERATURE IN CELSIUS                      <
>     VRB    - VARIABLE WIND DIRECTION                     <
>                                                          <
>>>>>>>>>>>>>>>>>>>>>>>>>>>> KEY <<<<<<<<<<<<<<<<<<<<<<<<<<<






USA.gov is the U.S. government's official web portal to all federal, state and local government web resources and services.